Lake Wenatchee to Mission Ridge
Blewett Pass
Latest observation 08/31 20:00 PDT
| Time (PDT) | Temp °F 4100' | RH % 4100' | Pcp1 in 4100' | PcpSum in 4100' | 24Sno in 4100' | SnoHt in 4100' | Pres millibar 4100' | EqTemp °F 4100' |
|---|---|---|---|---|---|---|---|---|
| 08/31 20:00 | 61 | 40 | 0.00 | 0.00 | -34.9 | -3.0 | 1013 | 59 |
| 08/31 19:00 | 66 | 34 | 0.00 | 0.00 | -7.2 | -2.3 | 1014 | 65 |
| 08/31 18:00 | 68 | 31 | 0.00 | 0.00 | 19.3 | -2.5 | 1014 | 72 |
| 08/31 17:00 | 69 | 29 | 0.00 | 0.00 | 33.6 | -2.2 | 1014 | 83 |
| 08/31 16:00 | 70 | 31 | 0.00 | 0.00 | 42.2 | -2.9 | 1014 | 87 |
| 08/31 15:00 | 71 | 32 | 0.00 | 0.00 | 43.5 | -3.3 | 1015 | 88 |
| 08/31 14:00 | 68 | 37 | 0.00 | 0.00 | 40.4 | -2.7 | 1015 | 85 |
| 08/31 13:00 | 67 | 40 | 0.00 | 0.00 | 37.6 | -2.4 | 1016 | 85 |
| 08/31 12:00 | 64 | 44 | 0.00 | 0.00 | 40.6 | -2.2 | 1016 | 84 |
| 08/31 11:00 | 63 | 44 | 0.00 | 0.00 | 33.3 | 141.5 | 1017 | 86 |
| 08/31 10:00 | 61 | 47 | 0.00 | 0.00 | 12.5 | 141.5 | 1017 | 86 |
| 08/31 09:00 | 59 | 52 | 0.00 | 0.00 | -20.8 | 141.5 | 1017 | 82 |
| 08/31 08:00 | 56 | 61 | 0.00 | 0.00 | -9.9 | 141.5 | 1017 | 69 |
| 08/31 07:00 | 46 | 83 | 0.00 | 0.00 | -13.8 | 141.5 | 1017 | 44 |
| 08/31 06:00 | 46 | 84 | 0.00 | 0.00 | -13.5 | 141.5 | 1016 | 43 |
| 08/31 05:00 | 46 | 82 | 0.00 | 0.00 | -18.5 | 141.5 | 1016 | 43 |
| 08/31 04:00 | 47 | 81 | 0.00 | 0.00 | -15.9 | 141.5 | 1017 | 44 |
| 08/31 03:00 | 47 | 80 | 0.00 | 0.00 | -20.5 | 141.5 | 1016 | 44 |
| 08/31 02:00 | 47 | 80 | 0.00 | 0.00 | -25.9 | 141.5 | 1017 | 45 |
| 08/31 01:00 | 48 | 77 | 0.00 | 0.00 | -19.2 | 141.5 | 1017 | 45 |
| 08/31 00:00 | 48 | 77 | 0.00 | 0.00 | -42.0 | 141.5 | 1017 | 45 |
| 08/30 23:00 | 49 | 73 | 0.00 | 0.00 | -99.8 | -1.7 | 1018 | 47 |
| 08/30 22:00 | 51 | 68 | 0.00 | 0.00 | -92.2 | -2.2 | 1018 | 48 |
| 08/30 21:00 | 53 | 63 | 0.00 | 0.00 | -72.5 | -1.5 | 1018 | 51 |

